Simultaneous Nadir Overpasses (SNOs) Predictions

Prediction of SNOs between GOES-17 and NOAA-19 Satellite Orbit:

Table of predicted SNOs for the next 14.0 days since TLE Epoch: 6/5/2020
Index Date Time (GOES-17) GOES-17 Lat,Lon NOAA-19 Lat,Lon Distance(km) Time Diff (sec)
1 06/06/2020 02:48:26 -0.02,-137.17 0.78,-133.72 394.56 80
2 06/07/2020 15:20:58 0.02,-137.17 1.04,-141.49 493.79 80
3 06/08/2020 15:09:17 0.01,-137.16 0.36,-138.64 169.19 80
4 06/09/2020 14:54:57 0.01,-137.15 -0.32,-135.80 155.39 80
5 06/10/2020 14:43:15 0.01,-137.14 -0.94,-132.93 479.93 80
6 06/12/2020 03:16:06 -0.01,-137.11 -0.84,-140.80 420.54 80
7 06/13/2020 03:04:25 -0.01,-137.10 -0.22,-137.94 96.12 80
8 06/14/2020 02:55:25 -0.01,-137.09 0.47,-135.09 228.25 80
9 06/16/2020 15:13:34 0.00,-137.06 0.72,-140.01 336.88 80
10 06/17/2020 15:01:54 0.00,-137.04 0.04,-137.16 13.14 80
11 06/18/2020 14:52:53 0.00,-137.02 -0.65,-134.31 310.46 80




NCC Satellite Simultaneous Nadir Overpasses (SNOs) Prediction Service
